Regional Weather Roundup
Issued by NWS

Home | Current Version | Previous Version | Graphics & Text | Print | Product List | Glossary On
Versions: 1 2 3 4 5 6 7 8 9 10 11 12 13 14 15 16 17 18 19 20 21 22 23 24 25 26 27 28 29 30 31 32 33 34 35 36 37 38 39 40 41 42 43 44 45 46 47 48 49 50
000
ASUS43 KBIS 072310
RWRND

NORTH DAKOTA REGIONAL WEATHER ROUNDUP
NATIONAL WEATHER SERVICE BISMARCK ND
600 PM CDT TUE JUL 07 2015

NOTE: "FAIR" INDICATES FEW OR NO CLOUDS BELOW 12,000 FEET WITH NO
SIGNIFICANT WEATHER AND/OR OBSTRUCTIONS TO VISIBILITY.


NDZ001>003-009>011-017-080000-
NORTHWEST NORTH DAKOTA

CITY           SKY/WX    TMP DP  RH WIND       PRES   REMARKS
WILLISTON      CLOUDY    73  53  49 N16G26    29.97S
MINOT          PTSUNNY   75  52  44 SE13      29.96F
MINOT AFB      SUNNY     78  59  52 S9        29.95F
$$

NDZ018>021-031>035-040>046-080000-
SOUTHWEST NORTH DAKOTA

CITY           SKY/WX    TMP DP  RH WIND       PRES   REMARKS
BISMARCK       PTSUNNY   73  57  57 S14       30.02F
DICKINSON      LGT RAIN  68  59  73 SE9       29.95F
GARRISON         N/A     74  58  57 SE13      29.99F
HETTINGER ARPT MOSUNNY   71  57  61 SE17G28   29.97F
$$

NDZ004>008-012>016-024-026-027-054-080000-
NORTHEAST NORTH DAKOTA

CITY           SKY/WX    TMP DP  RH WIND       PRES   REMARKS
GRAND FORKS    MOSUNNY   73  45  36 SW9G18    30.05F
GRND FRKS AFB  MOSUNNY   73  45  37 S10       30.05F
DEVILS LAKE    SUNNY     73  48  40 SW12      30.02F
$$

NDZ022-023-025-028>030-036>039-047>053-080000-
SOUTHEAST NORTH DAKOTA

CITY           SKY/WX    TMP DP  RH WIND       PRES   REMARKS
FARGO          SUNNY     72  44  36 S9G18     30.08F
JAMESTOWN      SUNNY     72  47  40 S10       30.06F
$$




USA.gov is the U.S. government's official web portal to all federal, state and local government web resources and services.